[[{"header":{"parameterUnit":"m.s-1","parameterCategory":1,"la1":30.2991,"la2":30.254,"lo1":-89.0895,"lo2":-89.0444,"dy":0.0017,"dx":0.0017,"nx":28,"ny":28,"refTime":"2024-02-19T03:00:00:Z","depth":0,"parameterNumber":2,"parameterNumberName":"U-component_of_WINDS"},"data":[0,0,0,0,0,0,0,0,0,0,0,0,0,0,0,0,0,0,0,0,0,0,0,0,0,0,0,0,0,0,0,0,0,0,0,0,0,0,0,0,0,0,0,0,0,0,0,0,0,0,0,0,0,0,0,0,0,0,1.1236,1.1237,0,1.1328,1.1329,1.133,1.1384,1.1384,1.1385,1.1385,1.148,1.1482,1.1484,0,0,0,0,0,0,0,0,0,0,0,0,0,1.1108,1.111,1.1236,1.1237,1.1238,1.1327,1.1329,1.133,1.1384,1.1384,1.1385,1.1385,1.1479,1.1482,1.1484,0,0,0,0,0,0,0,0,0,0,0,0,0,1.1178,1.111,1.1236,1.1276,1.128,1.1327,1.1329,1.133,1.1384,1.1384,1.1385,1.1385,1.1478,1.1481,1.1485,1.1499,0,0,1.1495,1.1497,0,0,0,0,0,0,0,0,1.1174,1.1182,1.1269,1.1273,1.1278,1.1345,1.1318,1.1387,1.1384,1.1345,1.1385,1.1385,1.1435,1.1442,1.1458,1.1503,1.1507,1.1496,1.1498,1.1499,1.15,0,0,0,0,0,0,0,1.1169,1.1179,1.1272,1.127,1.1276,1.1289,1.13,1.1332,1.1387,1.1348,1.1352,1.1362,1.1437,1.1455,1.1461,1.1509,1.1495,1.1499,1.1501,1.1502,1.1569,1.1569,0,0,0,0,0,0,1.1157,1.1174,1.1269,1.1275,1.1226,1.1291,1.1303,1.1323,1.1386,1.1396,1.1362,1.1365,1.1448,1.1457,1.1464,1.1484,1.1499,1.1502,1.1504,1.157,1.1569,1.1569,0,0,0,0,0,0,1.1154,1.1165,1.1266,1.1226,1.124,1.1293,1.1315,1.1325,1.1342,1.1397,1.1407,1.137,1.1449,1.1459,1.149,1.1488,1.1504,1.1507,1.157,1.157,1.1569,1.1525,0,0,0,0,0,0,1.1151,1.1164,1.117,1.1226,1.1241,1.1289,1.1315,1.1326,1.1348,1.1352,1.1407,1.1416,1.145,1.1484,1.1493,1.1493,1.151,1.157,1.157,1.1569,1.1526,1.1523,1.1519,0,0,0,0,0,1.1146,1.1154,1.117,1.1181,1.125,1.1289,1.1298,1.1337,1.1348,1.1354,1.1389,1.1414,1.1487,1.1487,1.1497,1.1498,1.1571,1.157,1.1569,1.1528,1.1523,1.152,0,0,0,0,0,0,1.1097,1.1162,1.118,1.1207,1.1242,1.1298,1.1307,1.1331,1.1364,1.1367,1.1414,1.1426,1.1451,1.1478,1.1477,1.1515,1.1532,1.1533,1.1496,1.1493,1.1489,1.1482,1.1513,0,0,0,0,0,1.109,1.1116,1.1171,1.1189,1.1206,1.1253,1.1272,1.1299,1.1337,1.1352,1.139,1.1426,1.1457,1.1477,1.1508,1.1531,1.1543,1.1537,1.1533,1.153,1.1531,1.1543,1.1541,1.1567,1.1567,1.1567,0,0,1.1074,1.1113,1.1126,1.118,1.1211,1.1236,1.1265,1.1292,1.1311,1.1356,1.1387,1.1415,1.1459,1.1485,1.1499,1.1508,1.1526,1.1529,1.1526,1.1529,1.1543,1.154,1.1538,1.1567,1.1567,1.1567,0,0,1.1059,1.1091,1.1109,1.1139,1.1184,1.1216,1.122,1.1272,1.1293,1.1324,1.1358,1.1382,1.1435,1.1464,1.1486,1.1481,1.1505,1.149,1.1472,1.1484,1.1482,1.148,1.1478,1.1476,1.1491,1.1491,1.1491,0,1.1034,1.1074,1.1115,1.1139,1.1162,1.1203,1.1222,1.1249,1.1302,1.1316,1.1327,1.1393,1.1426,1.1459,1.1457,1.1474,1.148,1.1484,1.1479,1.1478,1.1477,1.1475,1.1474,1.1488,1.1489,1.1489,1.1489,0,1.104,1.1068,1.1077,1.1127,1.115,1.1172,1.1216,1.1235,1.126,1.129,1.1321,1.1361,1.1401,1.1411,1.1436,1.1448,1.1452,1.147,1.1487,1.1471,1.147,1.147,1.1485,1.1486,1.1487,1.1487,0,0,1.0997,1.1069,1.1072,1.1094,1.1147,1.1169,1.1192,1.1231,1.1246,1.1281,1.1301,1.1344,1.1361,1.1386,1.1414,1.1425,1.1417,1.1441,1.1443,1.1435,1.1431,1.1416,1.1415,1.1434,1.1434,1.1434,1.1427,0,1.0989,1.1031,1.1069,1.1098,1.1123,1.1163,1.1183,1.1217,1.1246,1.1272,1.1304,1.1333,1.1354,1.1368,1.1381,1.1415,1.1417,1.1416,1.1452,1.1453,1.1439,1.1414,1.1399,1.1391,1.1427,1.1427,1.1427,0,1.0985,1.1018,1.1049,1.1098,1.111,1.1128,1.1166,1.119,1.123,1.125,1.1277,1.1307,1.1332,1.1347,1.1383,1.1382,1.1399,1.1418,1.1418,1.1423,1.1438,1.1417,1.1389,1.1388,1.1427,1.1427,1.1427,0,1.0948,1.1001,1.1026,1.1044,1.1103,1.1114,1.1139,1.1179,1.12,1.1233,1.1247,1.1283,1.1303,1.133,1.1368,1.1376,1.1399,1.1418,1.1416,1.1415,1.1419,1.1418,1.1393,1.1431,1.1431,1.1431,1.1431,0,1.0935,1.0952,1.101,1.1026,1.1046,1.1089,1.1108,1.1137,1.1172,1.1193,1.123,1.125,1.13,1.1325,1.1355,1.1379,1.1388,1.1405,1.1413,1.1401,1.1399,1.1412,1.1413,1.1431,1.1431,1.1431,1.1431,0,1.0897,1.0937,1.0967,1.102,1.1034,1.1046,1.1092,1.1108,1.1139,1.1165,1.1174,1.1222,1.1254,1.1295,1.134,1.136,1.138,1.1393,1.1367,1.1371,1.1366,1.1366,1.1348,1.1348,1.1387,1.1387,1.1386,0,1.0885,1.0899,1.0954,1.097,1.0994,1.1021,1.1042,1.1085,1.1105,1.1151,1.1162,1.1196,1.1226,1.1274,1.1313,1.1347,1.136,1.1352,1.1366,1.1353,1.1359,1.1357,1.1358,1.1348,1.1347,1.1347,1.1346,0,1.0859,1.0878,1.0907,1.0942,1.0966,1.0997,1.1028,1.104,1.109,1.1111,1.1143,1.1166,1.1211,1.1244,1.1283,1.1309,1.1335,1.1342,1.1343,1.1331,1.1314,1.1322,1.1356,1.1342,1.1342,1.1342,1.1343,1.1343,1.0834,1.0848,1.0888,1.0918,1.0947,1.0975,1.0993,1.1026,1.1053,1.1093,1.1117,1.1148,1.1187,1.1242,1.1267,1.1292,1.1302,1.1304,1.1304,1.1304,1.1299,1.1311,1.1299,1.1299,1.13,1.13,1.13,0,1.0809,1.0836,1.0864,1.0907,1.0931,1.0954,1.099,1.1008,1.1035,1.1069,1.1097,1.1134,1.1166,1.1208,1.1243,1.1255,1.1267,1.1262,1.1261,1.1266,1.1289,1.1284,1.1251,1.1251,1.1251,1.1251,1.1251,1.1251,1.0798,1.0823,1.0846,1.0885,1.0913,1.0943,1.0962,1.0988,1.1016,1.1055,1.1081,1.1108,1.1145,1.1183,1.1213,1.1225,1.1235,1.1226,1.1241,1.1261,1.1265,1.1269,1.1265,1.1228,1.1228,1.1216,1.1216,1.1216]},{"header":{"parameterUnit":"m.s-1","parameterCategory":1,"la1":30.2991,"la2":30.254,"lo1":-89.0895,"lo2":-89.0444,"dy":0.0017,"dx":0.0017,"nx":28,"ny":28,"refTime":"2024-02-19T03:00:00:Z","depth":0,"parameterNumber":3,"parameterNumberName":"V-component_of_WINDS"},"data":[0,0,0,0,0,0,0,0,0,0,0,0,0,0,0,0,0,0,0,0,0,0,0,0,0,0,0,0,0,0,0,0,0,0,0,0,0,0,0,0,0,0,0,0,0,0,0,0,0,0,0,0,0,0,0,0,0,0,1.7519,1.7518,0,1.7456,1.7455,1.7454,1.7449,1.745,1.745,1.7451,1.7382,1.7379,1.7377,0,0,0,0,0,0,0,0,0,0,0,0,0,1.7629,1.7627,1.7519,1.7518,1.7517,1.7456,1.7455,1.7454,1.7449,1.745,1.7451,1.7451,1.7383,1.738,1.7377,0,0,0,0,0,0,0,0,0,0,0,0,0,1.7575,1.7626,1.7519,1.7507,1.7506,1.7456,1.7455,1.7454,1.7449,1.745,1.7451,1.7452,1.7384,1.738,1.7376,1.7333,0,0,1.7365,1.7363,0,0,0,0,0,0,0,0,1.7578,1.7571,1.751,1.7508,1.7506,1.7461,1.7469,1.7413,1.7448,1.747,1.7451,1.7452,1.7407,1.7402,1.7387,1.733,1.7327,1.7365,1.7362,1.7361,1.736,0,0,0,0,0,0,0,1.7582,1.7573,1.7494,1.7509,1.7506,1.7503,1.7497,1.7458,1.7433,1.7468,1.7468,1.7461,1.7406,1.7391,1.7386,1.7326,1.7365,1.7361,1.7359,1.7358,1.7226,1.7225,0,0,0,0,0,0,1.7588,1.7577,1.7496,1.7492,1.7545,1.7501,1.7493,1.7475,1.7434,1.7429,1.746,1.7461,1.7397,1.739,1.7383,1.7328,1.7361,1.7357,1.7355,1.7228,1.7226,1.7225,0,0,0,0,0,0,1.7591,1.7581,1.7498,1.7534,1.7523,1.7498,1.7477,1.7473,1.7458,1.7428,1.7423,1.7449,1.7397,1.7388,1.7345,1.7325,1.7356,1.7352,1.7229,1.7227,1.7225,1.7217,0,0,0,0,0,0,1.7594,1.7582,1.7566,1.7534,1.7521,1.7463,1.7475,1.7471,1.7452,1.7452,1.7416,1.7411,1.7398,1.7351,1.7341,1.7321,1.7349,1.7231,1.7228,1.7226,1.7219,1.7215,1.7212,0,0,0,0,0,1.7598,1.7566,1.7566,1.7556,1.7502,1.7462,1.7454,1.7441,1.745,1.7433,1.7414,1.7412,1.733,1.7346,1.7336,1.7314,1.7232,1.7229,1.7226,1.7221,1.7216,1.7212,0,0,0,0,0,0,1.7596,1.7562,1.7561,1.7518,1.7493,1.7461,1.7439,1.7437,1.7407,1.7409,1.7392,1.7383,1.734,1.7323,1.7342,1.7268,1.7281,1.7276,1.7281,1.7276,1.7273,1.7277,1.7346,0,0,0,0,0,1.7591,1.7563,1.7534,1.7499,1.7486,1.7465,1.7447,1.7439,1.7411,1.74,1.7378,1.735,1.7317,1.7296,1.7265,1.7217,1.7208,1.7197,1.7193,1.7191,1.7186,1.7157,1.7151,1.7215,1.7215,1.7215,0,0,1.7579,1.7557,1.754,1.7498,1.7477,1.7447,1.7456,1.7424,1.74,1.7395,1.7352,1.7335,1.7302,1.7256,1.7235,1.7241,1.7166,1.7187,1.7185,1.7181,1.7153,1.7147,1.7142,1.7213,1.7214,1.7214,0,0,1.7542,1.7524,1.7492,1.7471,1.744,1.7426,1.7419,1.7387,1.7375,1.7333,1.7328,1.7299,1.7244,1.722,1.7201,1.7155,1.7151,1.7145,1.7125,1.7098,1.7092,1.7088,1.7069,1.7062,1.7141,1.7141,1.7141,0,1.7531,1.7486,1.7475,1.7442,1.7423,1.7418,1.7384,1.7364,1.7324,1.731,1.7318,1.7248,1.7226,1.7173,1.7161,1.7147,1.7135,1.7148,1.7095,1.709,1.7085,1.7067,1.706,1.714,1.714,1.714,1.714,0,1.7473,1.7442,1.742,1.7382,1.736,1.7327,1.7309,1.7288,1.7281,1.7266,1.7221,1.7195,1.7157,1.7144,1.7138,1.709,1.7094,1.7099,1.7111,1.7078,1.7061,1.7054,1.7139,1.7139,1.7139,1.7139,0,0,1.7432,1.7389,1.7381,1.7363,1.7328,1.7303,1.7269,1.7234,1.7214,1.7187,1.7156,1.711,1.7113,1.7091,1.7082,1.7058,1.7019,1.7064,1.7063,1.7055,1.6962,1.6957,1.695,1.7018,1.7016,1.7015,1.6964,0,1.7389,1.733,1.7318,1.7266,1.7235,1.723,1.72,1.7175,1.7159,1.713,1.7112,1.7079,1.7087,1.7074,1.705,1.7029,1.7,1.7033,1.6986,1.6985,1.6992,1.6941,1.6936,1.6889,1.6957,1.6956,1.6955,0,1.7331,1.7303,1.7248,1.7216,1.7203,1.7177,1.7142,1.7115,1.7085,1.7075,1.7051,1.7044,1.7006,1.7022,1.6968,1.699,1.6971,1.6958,1.6955,1.6948,1.6966,1.693,1.6874,1.6866,1.6945,1.6946,1.6946,0,1.7304,1.7252,1.7212,1.7197,1.716,1.7141,1.7124,1.7096,1.7075,1.7044,1.703,1.6995,1.6975,1.6947,1.693,1.6944,1.6876,1.6892,1.6865,1.6865,1.6849,1.685,1.6786,1.6841,1.6841,1.6841,1.6841,0,1.7256,1.7222,1.7199,1.7174,1.7135,1.7121,1.7082,1.7065,1.704,1.701,1.7004,1.6975,1.6956,1.6924,1.691,1.6866,1.6857,1.6847,1.6843,1.6846,1.6847,1.6831,1.6832,1.6839,1.6839,1.684,1.684,0,1.7218,1.7202,1.7157,1.7126,1.7117,1.7089,1.7061,1.7035,1.702,1.6982,1.6972,1.6948,1.691,1.6891,1.6843,1.6834,1.6783,1.6783,1.6793,1.6791,1.6765,1.6766,1.6686,1.6674,1.6739,1.6739,1.6738,0,1.7187,1.7161,1.7127,1.7107,1.709,1.7058,1.7036,1.7022,1.6999,1.6963,1.6941,1.6903,1.6872,1.6811,1.6788,1.6751,1.6748,1.6722,1.6742,1.6745,1.6744,1.6745,1.6741,1.6718,1.6717,1.6717,1.6716,0,1.7133,1.7127,1.7097,1.7064,1.7038,1.7011,1.6984,1.6968,1.6948,1.6923,1.6885,1.6861,1.6813,1.6774,1.6736,1.6716,1.6712,1.6711,1.6702,1.6703,1.671,1.6703,1.6781,1.6712,1.6713,1.6713,1.6713,1.6713,1.7096,1.7072,1.7043,1.701,1.6988,1.6963,1.6937,1.6919,1.6887,1.6848,1.6841,1.6799,1.6769,1.6716,1.6696,1.6662,1.6667,1.6655,1.6652,1.6648,1.6646,1.6717,1.6655,1.6655,1.6655,1.6655,1.6656,0,1.704,1.7022,1.6991,1.6954,1.6927,1.6928,1.6898,1.6874,1.6838,1.6811,1.6781,1.6735,1.6698,1.6672,1.6633,1.6611,1.6608,1.6601,1.6601,1.6596,1.6645,1.6655,1.6604,1.6604,1.6604,1.6604,1.6604,1.6604,1.7007,1.6965,1.6955,1.6901,1.6883,1.6843,1.6826,1.6801,1.6779,1.673,1.6699,1.6683,1.6655,1.6614,1.6579,1.6572,1.6557,1.6549,1.6542,1.6587,1.6593,1.6598,1.6607,1.6547,1.6547,1.6495,1.6495,1.6495]}]]